Location: Pic du Midi - T1M
(42.9366°N, 0.1426°E)
Time: 10:29:55
(UTC+01:00)

X-37B - Pass Details

Date: 22 June 2021
Orbit: 383 x 392 km, 45.0° (Epoch: 01 July)

Event Time Altitude Azimuth Distance (km) Brightness Sun altitude
Exits shadow 02:43:00 81° 25° (NNE) 390 0.5 -19.6°
Drops below altitude 10° 02:46:07 10° 102° (ESE) 1,397 3.5 -19.4°
Sets 02:48:11 0° 104° (ESE) 2,250 4.6 -19.2°
